Location: Bruch
(44.2051°N, 0.4120°E)
Time: 10:07:16
(UTC+00:00)

SL-4 R/B - Pass Details

Date: 29 November 2020
Orbit: 428 x 664 km, 51.6° (Epoch: 25 January)

Event Time Altitude Azimuth Distance (km) Brightness Sun altitude
Exits shadow 05:50:36 19° 323° (NW) 1,241 3.4 -14.2°
Maximum altitude 05:52:18 26° 2° (N) 996 3.2 -13.9°
Drops below altitude 10° 05:55:28 10° 62° (ENE) 1,638 5.1 -13.3°
Sets 05:57:47 0° 75° (ENE) 2,478 6.4 -12.9°
